| time (UTC) | temp C | wind direction | speed KPH | gust KPH | rain 1hr cm | rain 24hr cm | rain mn cm | humidity % | barometer mb |
| 20260504173044 | 11 | 312 | 20.9 | 25.7 | 0.00 | 0.00 | 0.00 | 45 | 1015.5 |
| 20260504171543 | 11 | 321 | 24.1 | 33.8 | 0.00 | 0.00 | 0.00 | 43 | 1015.5 |
| 20260504081540 | 9 | 30 | 14.5 | 24.1 | 0.00 | 0.00 | 0.00 | 50 | 1015.4 |
| 20260504044537 | 12 | 33 | 6.4 | 11.3 | 0.00 | 0.00 | 0.00 | 42 | 1009.4 |
| 20260504043039 | 12 | 0 | 0.0 | 0.0 | 0.00 | 0.00 | 0.00 | 40 | 1009.2 |
| 20260504041541 | 13 | 47 | 1.6 | 6.4 | 0.00 | 0.00 | 0.00 | 38 | 1009.0 |
| 20260504040042 | 15 | 46 | 4.8 | 12.9 | 0.00 | 0.00 | 0.00 | 35 | 1008.8 |
| 20260504034553 | 15 | 0 | 0.0 | 1.6 | 0.00 | 0.00 | 0.00 | 33 | 1008.5 |
| 20260504033051 | 15 | 0 | 1.6 | 4.8 | 0.00 | 0.00 | 0.00 | 30 | 1007.7 |
| 20260504031556 | 16 | 99 | 0.0 | 3.2 | 0.00 | 0.00 | 0.00 | 30 | 1007.6 |
| 20260504030043 | 16 | 0 | 0.0 | 1.6 | 0.00 | 0.00 | 0.00 | 29 | 1007.3 |
| 20260504024549 | 17 | 0 | 0.0 | 1.6 | 0.00 | 0.00 | 0.00 | 27 | 1007.2 |
| 20260504023044 | 17 | 0 | 0.0 | 0.0 | 0.00 | 0.00 | 0.00 | 27 | 1007.1 |
| 20260504021543 | 18 | 0 | 0.0 | 0.0 | 0.00 | 0.00 | 0.00 | 25 | 1007.1 |
| 20260504020040 | 20 | 41 | 3.2 | 12.9 | 0.00 | 0.00 | 0.00 | 23 | 1007.0 |
| 20260504014539 | 21 | 354 | 6.4 | 17.7 | 0.00 | 0.00 | 0.00 | 22 | 1006.9 |
| 20260504013042 | 22 | 41 | 11.3 | 25.7 | 0.00 | 0.00 | 0.00 | 20 | 1006.9 |
| 20260504011542 | 23 | 345 | 14.5 | 24.1 | 0.00 | 0.00 | 0.00 | 19 | 1006.9 |
| 20260504010043 | 23 | 303 | 11.3 | 20.9 | 0.00 | 0.00 | 0.00 | 18 | 1007.1 |
| 20260504004541 | 23 | 333 | 14.5 | 24.1 | 0.00 | 0.00 | 0.00 | 17 | 1007.2 |
| 20260504003043 | 23 | 300 | 19.3 | 24.1 | 0.00 | 0.00 | 0.00 | 16 | 1007.3 |
| 20260504001542 | 23 | 0 | 0.0 | 3.2 | 0.00 | 0.00 | 0.00 | 17 | 1007.5 |
| 20260504000104 | 23 | 0 | 0.0 | 0.0 | 0.00 | 0.00 | 0.00 | 17 | 1007.5 |
| 20260503234543 | 23 | 0 | 0.0 | 4.8 | 0.00 | 0.00 | 0.00 | 17 | 1007.7 |
| 20260503233042 | 23 | 0 | 0.0 | 3.2 | 0.00 | 0.00 | 0.00 | 17 | 1007.9 |
| 20260503231541 | 23 | 0 | 0.0 | 6.4 | 0.00 | 0.00 | 0.00 | 17 | 1007.9 |
| 20260503230038 | 23 | 333 | 0.0 | 8.0 | 0.00 | 0.00 | 0.00 | 16 | 1007.9 |
| 20260503224543 | 23 | 0 | 0.0 | 25.7 | 0.00 | 0.00 | 0.00 | 16 | 1008.2 |
| 20260503223044 | 23 | 265 | 22.5 | 29.0 | 0.00 | 0.00 | 0.00 | 16 | 1008.5 |
| 20260503221542 | 23 | 321 | 20.9 | 32.2 | 0.00 | 0.00 | 0.00 | 16 | 1008.6 |
| 20260503220043 | 22 | 283 | 17.7 | 30.6 | 0.00 | 0.00 | 0.00 | 16 | 1008.8 |
| 20260503214541 | 23 | 325 | 0.0 | 19.3 | 0.00 | 0.00 | 0.00 | 16 | 1008.9 |
| 20260503213040 | 22 | 308 | 11.3 | 25.7 | 0.00 | 0.00 | 0.00 | 17 | 1009.1 |
| 20260503211536 | 22 | 0 | 0.0 | 22.5 | 0.00 | 0.00 | 0.00 | 18 | 1009.1 |
| 20260503210045 | 22 | 333 | 20.9 | 33.8 | 0.00 | 0.00 | 0.00 | 17 | 1009.4 |
| 20260503204540 | 22 | 290 | 14.5 | 32.2 | 0.00 | 0.00 | 0.00 | 19 | 1010.0 |
| 20260503203044 | 22 | 0 | 0.0 | 24.1 | 0.00 | 0.00 | 0.00 | 19 | 1010.1 |
| 20260503201542 | 22 | 309 | 20.9 | 27.4 | 0.00 | 0.00 | 0.00 | 20 | 1010.2 |
| 20260503200042 | 21 | 296 | 22.5 | 41.8 | 0.00 | 0.00 | 0.00 | 20 | 1010.6 |
| 20260503194541 | 21 | 307 | 12.9 | 24.1 | 0.00 | 0.00 | 0.00 | 22 | 1010.9 |
| 20260503193038 | 21 | 314 | 16.1 | 27.4 | 0.00 | 0.00 | 0.00 | 21 | 1011.0 |
| 20260503191542 | 21 | 313 | 20.9 | 37.0 | 0.00 | 0.00 | 0.00 | 23 | 1011.3 |
| 20260503190039 | 20 | 295 | 14.5 | 24.1 | 0.00 | 0.00 | 0.00 | 24 | 1011.5 |
| 20260503184600 | 20 | 294 | 24.1 | 35.4 | 0.00 | 0.00 | 0.00 | 24 | 1011.6 |
| 20260503183044 | 21 | 302 | 20.9 | 25.7 | 0.00 | 0.00 | 0.00 | 24 | 1011.6 |
| 20260503181537 | 20 | 273 | 14.5 | 33.8 | 0.00 | 0.00 | 0.00 | 25 | 1011.9 |
| 20260503180038 | 20 | 280 | 8.0 | 24.1 | 0.00 | 0.00 | 0.00 | 26 | 1012.0 |
| 20260503174542 | 19 | 324 | 17.7 | 25.7 | 0.00 | 0.00 | 0.00 | 26 | 1012.2 |